[[{"header":{"parameterUnit":"m.s-1","parameterCategory":1,"la1":30.2991,"la2":30.254,"lo1":-89.0895,"lo2":-89.0444,"dy":0.0017,"dx":0.0017,"nx":28,"ny":28,"refTime":"2023-03-19T21:00:00:Z","depth":0,"parameterNumber":2,"parameterNumberName":"U-component_of_WINDS"},"data":[0,0,0,0,0,0,0,0,0,0,0,0,0,0,0,0,0,0,0,0,0,0,0,0,0,0,0,0,0,0,0,0,0,0,0,0,0,0,0,0,0,0,0,0,0,0,0,0,0,0,0,0,0,0,0,0,0,0,-4.1866,-4.1866,0,-4.1882,-4.1882,-4.1882,-4.179,-4.1787,-4.1784,-4.1782,-4.1797,-4.18,-4.1803,0,0,0,0,0,0,0,0,0,0,0,0,0,-4.1756,-4.1759,-4.1866,-4.1866,-4.1866,-4.1882,-4.1882,-4.1882,-4.179,-4.1787,-4.1784,-4.1781,-4.1796,-4.1799,-4.1803,0,0,0,0,0,0,0,0,0,0,0,0,0,-4.1791,-4.1759,-4.1866,-4.1822,-4.1819,-4.1881,-4.1882,-4.1882,-4.1791,-4.1787,-4.1783,-4.1779,-4.1795,-4.1799,-4.1803,-4.1908,0,0,-4.1816,-4.1818,0,0,0,0,0,0,0,0,-4.1789,-4.1795,-4.1829,-4.1826,-4.1821,-4.183,-4.1848,-4.1891,-4.1792,-4.1801,-4.1782,-4.1777,-4.1811,-4.1814,-4.1825,-4.1909,-4.191,-4.1817,-4.1819,-4.1821,-4.1822,0,0,0,0,0,0,0,-4.1787,-4.1794,-4.1872,-4.1829,-4.1825,-4.1802,-4.1802,-4.1856,-4.1828,-4.18,-4.1794,-4.1797,-4.1808,-4.1821,-4.1825,-4.191,-4.1817,-4.182,-4.1823,-4.1825,-4.2081,-4.2085,0,0,0,0,0,0,-4.179,-4.1792,-4.1872,-4.1873,-4.1795,-4.1807,-4.1808,-4.1831,-4.1827,-4.1823,-4.18,-4.1792,-4.1816,-4.182,-4.1825,-4.1948,-4.1821,-4.1825,-4.1828,-4.2077,-4.2082,-4.2087,0,0,0,0,0,0,-4.1788,-4.1798,-4.1871,-4.1831,-4.1838,-4.1813,-4.184,-4.1833,-4.1846,-4.1827,-4.1822,-4.1819,-4.1813,-4.1819,-4.1888,-4.1947,-4.1827,-4.1831,-4.2072,-4.2078,-4.2084,-4.2195,0,0,0,0,0,0,-4.1786,-4.1798,-4.1838,-4.1832,-4.1841,-4.1935,-4.1844,-4.1837,-4.1854,-4.1844,-4.1843,-4.1839,-4.181,-4.1883,-4.1893,-4.1951,-4.1834,-4.2066,-4.2075,-4.2082,-4.2186,-4.2205,-4.222,0,0,0,0,0,-4.1782,-4.1868,-4.1841,-4.1851,-4.189,-4.1938,-4.1943,-4.1909,-4.1859,-4.1899,-4.1887,-4.1839,-4.1939,-4.1891,-4.1901,-4.1962,-4.2063,-4.2072,-4.2082,-4.2179,-4.2201,-4.222,0,0,0,0,0,0,-4.1881,-4.1867,-4.1836,-4.1923,-4.1933,-4.1923,-4.1972,-4.1933,-4.1957,-4.1947,-4.1903,-4.1903,-4.198,-4.1977,-4.1924,-4.2063,-4.1992,-4.2004,-4.2062,-4.2083,-4.21,-4.2099,-4.1838,0,0,0,0,0,-4.1913,-4.1954,-4.1939,-4.2017,-4.2024,-4.1997,-4.2017,-4.199,-4.1998,-4.2001,-4.1994,-4.2003,-4.2037,-4.206,-4.2089,-4.2185,-4.2184,-4.2232,-4.2249,-4.2263,-4.2274,-4.2325,-4.2346,-4.2118,-4.2118,-4.2118,0,0,-4.198,-4.1977,-4.2005,-4.2037,-4.2041,-4.2084,-4.2001,-4.205,-4.2081,-4.2008,-4.2074,-4.2069,-4.2076,-4.216,-4.2196,-4.216,-4.2337,-4.2275,-4.2287,-4.229,-4.2337,-4.2359,-4.2378,-4.2125,-4.2123,-4.2122,0,0,-4.2123,-4.2125,-4.2191,-4.2197,-4.2205,-4.2186,-4.2202,-4.2198,-4.2193,-4.2257,-4.2204,-4.224,-4.2299,-4.2306,-4.2318,-4.2465,-4.2422,-4.2476,-4.2565,-4.2615,-4.2633,-4.2649,-4.2701,-4.2721,-4.2487,-4.2487,-4.2487,0,-4.2205,-4.2268,-4.2229,-4.2282,-4.2298,-4.2234,-4.23,-4.2308,-4.2325,-4.2337,-4.2296,-4.2369,-4.237,-4.2454,-4.249,-4.2501,-4.2518,-4.2476,-4.2633,-4.2649,-4.2663,-4.2713,-4.2733,-4.2494,-4.2493,-4.2492,-4.2492,0,-4.2368,-4.2412,-4.2464,-4.2483,-4.2504,-4.2564,-4.2534,-4.256,-4.2531,-4.2518,-4.2585,-4.2583,-4.2612,-4.2629,-4.2601,-4.271,-4.2687,-4.2641,-4.2569,-4.2692,-4.2738,-4.2757,-4.2503,-4.2501,-4.2499,-4.2497,0,0,-4.2574,-4.2571,-4.2591,-4.2599,-4.2603,-4.2636,-4.2692,-4.2721,-4.2744,-4.2758,-4.2804,-4.2856,-4.2813,-4.2826,-4.2798,-4.2842,-4.2959,-4.279,-4.2789,-4.2822,-4.3079,-4.3114,-4.3137,-4.293,-4.2934,-4.2937,-4.3078,0,-4.2714,-4.2811,-4.2778,-4.2876,-4.2917,-4.2857,-4.2906,-4.2914,-4.2902,-4.2935,-4.2922,-4.2959,-4.29,-4.2907,-4.2948,-4.2936,-4.301,-4.2925,-4.2973,-4.2975,-4.2973,-4.316,-4.3198,-4.3331,-4.3096,-4.3099,-4.3101,0,-4.2891,-4.2913,-4.3015,-4.3012,-4.3028,-4.3073,-4.3096,-4.3128,-4.3136,-4.3124,-4.314,-4.3103,-4.3157,-4.3085,-4.316,-4.3103,-4.3121,-4.3118,-4.3122,-4.3125,-4.3046,-4.3169,-4.3373,-4.3393,-4.3129,-4.3127,-4.3125,0,-4.3032,-4.3086,-4.3155,-4.3163,-4.3162,-4.3195,-4.3196,-4.3199,-4.3218,-4.3239,-4.3251,-4.3277,-4.3292,-4.3313,-4.3284,-4.3234,-4.3363,-4.3288,-4.3355,-4.3356,-4.3385,-4.3384,-4.3595,-4.3396,-4.3396,-4.3396,-4.3395,0,-4.3192,-4.3257,-4.3218,-4.326,-4.3331,-4.3293,-4.3364,-4.3358,-4.3362,-4.3402,-4.3351,-4.339,-4.3349,-4.3383,-4.3361,-4.3426,-4.3433,-4.3425,-4.3419,-4.343,-4.3431,-4.3441,-4.3431,-4.3401,-4.34,-4.3399,-4.3398,0,-4.3361,-4.3337,-4.3408,-4.3401,-4.3401,-4.3454,-4.3448,-4.3486,-4.3471,-4.3522,-4.3532,-4.3509,-4.3546,-4.352,-4.3557,-4.3542,-4.3628,-4.3608,-4.3626,-4.3621,-4.3689,-4.3683,-4.3915,-4.3943,-4.3726,-4.3728,-4.373,0,-4.3465,-4.3514,-4.3512,-4.3536,-4.354,-4.3578,-4.3597,-4.3562,-4.3584,-4.3596,-4.3634,-4.3667,-4.3692,-4.3756,-4.3742,-4.3771,-4.3751,-4.383,-4.3755,-4.3765,-4.3752,-4.375,-4.3755,-4.3845,-4.3848,-4.385,-4.3852,0,-4.3652,-4.3638,-4.3669,-4.3695,-4.372,-4.3739,-4.3754,-4.3776,-4.374,-4.3767,-4.3806,-4.3825,-4.3864,-4.3898,-4.3922,-4.3922,-4.3881,-4.3876,-4.3893,-4.3905,-4.3913,-4.391,-4.3668,-4.387,-4.3869,-4.3867,-4.3866,-4.3865,-4.3792,-4.3833,-4.3838,-4.3874,-4.3881,-4.3897,-4.3933,-4.3923,-4.3954,-4.3983,-4.396,-4.4006,-4.4012,-4.404,-4.4045,-4.408,-4.4048,-4.4072,-4.4079,-4.4085,-4.4095,-4.3908,-4.4084,-4.4084,-4.4083,-4.4083,-4.4082,0,-4.3977,-4.3977,-4.4011,-4.4033,-4.4062,-4.4021,-4.4036,-4.4062,-4.4103,-4.4112,-4.4138,-4.4183,-4.4216,-4.4205,-4.4234,-4.4264,-4.4246,-4.4273,-4.427,-4.4271,-4.4122,-4.4105,-4.4287,-4.4287,-4.4287,-4.4287,-4.4287,-4.4287,-4.4076,-4.4143,-4.413,-4.42,-4.42,-4.4245,-4.4257,-4.4271,-4.4278,-4.433,-4.4357,-4.435,-4.4351,-4.438,-4.4409,-4.4404,-4.4418,-4.4451,-4.4441,-4.4302,-4.4282,-4.4262,-4.4246,-4.4455,-4.4455,-4.4586,-4.4588,-4.4589]},{"header":{"parameterUnit":"m.s-1","parameterCategory":1,"la1":30.2991,"la2":30.254,"lo1":-89.0895,"lo2":-89.0444,"dy":0.0017,"dx":0.0017,"nx":28,"ny":28,"refTime":"2023-03-19T21:00:00:Z","depth":0,"parameterNumber":3,"parameterNumberName":"V-component_of_WINDS"},"data":[0,0,0,0,0,0,0,0,0,0,0,0,0,0,0,0,0,0,0,0,0,0,0,0,0,0,0,0,0,0,0,0,0,0,0,0,0,0,0,0,0,0,0,0,0,0,0,0,0,0,0,0,0,0,0,0,0,0,-4.1738,-4.1739,0,-4.1775,-4.1775,-4.1776,-4.1732,-4.173,-4.1728,-4.1727,-4.1762,-4.1765,-4.1767,0,0,0,0,0,0,0,0,0,0,0,0,0,-4.1627,-4.1629,-4.1738,-4.1739,-4.1739,-4.1775,-4.1775,-4.1776,-4.1732,-4.173,-4.1728,-4.1726,-4.1762,-4.1765,-4.1768,0,0,0,0,0,0,0,0,0,0,0,0,0,-4.1671,-4.163,-4.1738,-4.1722,-4.172,-4.1775,-4.1775,-4.1776,-4.1732,-4.173,-4.1728,-4.1725,-4.1761,-4.1764,-4.1768,-4.184,0,0,-4.1779,-4.1781,0,0,0,0,0,0,0,0,-4.1668,-4.1675,-4.1724,-4.1723,-4.1722,-4.1746,-4.1749,-4.1797,-4.1733,-4.1728,-4.1727,-4.1724,-4.1759,-4.1763,-4.1775,-4.1841,-4.1843,-4.178,-4.1782,-4.1783,-4.1784,0,0,0,0,0,0,0,-4.1665,-4.1673,-4.1753,-4.1724,-4.1723,-4.1711,-4.1715,-4.1758,-4.1757,-4.1728,-4.1725,-4.173,-4.1758,-4.1771,-4.1775,-4.1843,-4.1779,-4.1783,-4.1785,-4.1786,-4.197,-4.1973,0,0,0,0,0,0,-4.1664,-4.1671,-4.1751,-4.1754,-4.1688,-4.1715,-4.1719,-4.1741,-4.1756,-4.1756,-4.1732,-4.1728,-4.1766,-4.1771,-4.1776,-4.1862,-4.1783,-4.1787,-4.1789,-4.1968,-4.1971,-4.1974,0,0,0,0,0,0,-4.1662,-4.1672,-4.175,-4.1711,-4.172,-4.172,-4.1744,-4.1743,-4.1756,-4.1759,-4.1758,-4.1746,-4.1765,-4.1771,-4.1824,-4.1862,-4.1789,-4.1792,-4.1964,-4.1969,-4.1972,-4.2032,0,0,0,0,0,0,-4.1659,-4.1672,-4.17,-4.1712,-4.1723,-4.1798,-4.1747,-4.1745,-4.1763,-4.1758,-4.1772,-4.1772,-4.1763,-4.1819,-4.1828,-4.1866,-4.1795,-4.1961,-4.1966,-4.1971,-4.2027,-4.2038,-4.2047,0,0,0,0,0,-4.1655,-4.1715,-4.1701,-4.1711,-4.1758,-4.1801,-4.1806,-4.1795,-4.1766,-4.1794,-4.1796,-4.1772,-4.1856,-4.1825,-4.1835,-4.1874,-4.1959,-4.1965,-4.1971,-4.2023,-4.2036,-4.2047,0,0,0,0,0,0,-4.1706,-4.1716,-4.1701,-4.1767,-4.1783,-4.1793,-4.1828,-4.181,-4.1834,-4.1829,-4.1813,-4.1816,-4.1873,-4.1879,-4.1844,-4.1944,-4.1903,-4.1911,-4.1939,-4.1951,-4.1961,-4.1959,-4.1798,0,0,0,0,0,-4.1724,-4.1759,-4.1766,-4.1823,-4.1832,-4.1829,-4.1847,-4.1837,-4.1853,-4.186,-4.1865,-4.1881,-4.1911,-4.1931,-4.1959,-4.2027,-4.203,-4.2059,-4.2069,-4.2078,-4.2085,-4.2121,-4.2134,-4.1993,-4.1993,-4.1993,0,0,-4.1763,-4.1773,-4.1796,-4.1833,-4.1845,-4.188,-4.1835,-4.1874,-4.19,-4.1865,-4.1916,-4.1921,-4.1937,-4.1999,-4.2026,-4.2005,-4.2124,-4.2085,-4.2092,-4.2095,-4.2129,-4.2142,-4.2154,-4.1997,-4.1997,-4.1996,0,0,-4.1853,-4.1864,-4.1912,-4.1925,-4.1944,-4.1941,-4.1953,-4.1965,-4.1967,-4.2018,-4.1993,-4.2023,-4.2075,-4.2088,-4.2101,-4.2195,-4.2174,-4.2204,-4.2257,-4.2293,-4.2304,-4.2314,-4.2347,-4.236,-4.2212,-4.2212,-4.2212,0,-4.1898,-4.1952,-4.1939,-4.1981,-4.1998,-4.1968,-4.2017,-4.203,-4.2056,-4.2068,-4.2044,-4.2109,-4.2118,-4.2182,-4.2205,-4.2217,-4.2229,-4.2203,-4.2304,-4.2313,-4.2322,-4.2354,-4.2367,-4.2215,-4.2215,-4.2215,-4.2214,0,-4.2008,-4.2045,-4.2082,-4.2109,-4.213,-4.2175,-4.2168,-4.2191,-4.2179,-4.2178,-4.223,-4.224,-4.2269,-4.2283,-4.2271,-4.2345,-4.2332,-4.2306,-4.2264,-4.234,-4.2369,-4.2381,-4.2221,-4.2219,-4.2218,-4.2217,0,0,-4.213,-4.215,-4.2164,-4.2175,-4.2193,-4.2222,-4.2265,-4.2294,-4.2314,-4.2332,-4.2368,-4.2413,-4.2389,-4.2404,-4.2394,-4.2425,-4.2499,-4.2395,-4.2395,-4.2415,-4.258,-4.26,-4.2614,-4.2484,-4.2487,-4.2488,-4.2579,0,-4.222,-4.2296,-4.2286,-4.2358,-4.2393,-4.2364,-4.2402,-4.2417,-4.2417,-4.2445,-4.2445,-4.2477,-4.2444,-4.2453,-4.2482,-4.2483,-4.2532,-4.2477,-4.2517,-4.2519,-4.2514,-4.263,-4.265,-4.2735,-4.259,-4.2592,-4.2594,0,-4.2335,-4.2359,-4.2436,-4.2448,-4.2462,-4.2496,-4.2522,-4.255,-4.2565,-4.2563,-4.258,-4.2564,-4.2606,-4.2563,-4.2621,-4.2584,-4.2599,-4.2602,-4.2605,-4.2609,-4.2561,-4.2637,-4.2762,-4.2775,-4.2612,-4.261,-4.2609,0,-4.2418,-4.2469,-4.2521,-4.2532,-4.2548,-4.2572,-4.258,-4.2593,-4.2611,-4.2633,-4.2645,-4.2672,-4.2686,-4.2707,-4.2698,-4.2667,-4.2757,-4.2713,-4.2757,-4.2757,-4.2777,-4.2776,-4.2908,-4.2787,-4.2786,-4.2786,-4.2786,0,-4.252,-4.2567,-4.2558,-4.2591,-4.2643,-4.263,-4.2682,-4.2686,-4.2698,-4.273,-4.2706,-4.2737,-4.2723,-4.2752,-4.2744,-4.2793,-4.28,-4.2799,-4.2797,-4.2802,-4.2802,-4.2812,-4.2806,-4.279,-4.2789,-4.2788,-4.2788,0,-4.2621,-4.2617,-4.2672,-4.2682,-4.2686,-4.2724,-4.2733,-4.2763,-4.2761,-4.2802,-4.281,-4.2808,-4.2841,-4.2833,-4.2869,-4.2864,-4.2926,-4.2916,-4.2921,-4.2919,-4.2963,-4.2959,-4.3106,-4.3124,-4.2991,-4.2992,-4.2993,0,-4.2687,-4.2723,-4.2737,-4.2757,-4.2767,-4.28,-4.2818,-4.2806,-4.2826,-4.2847,-4.2874,-4.2905,-4.2929,-4.2983,-4.2983,-4.3011,-4.3001,-4.3051,-4.3005,-4.3009,-4.3003,-4.3001,-4.3004,-4.306,-4.3062,-4.3063,-4.3064,0,-4.2803,-4.28,-4.2828,-4.2856,-4.2879,-4.29,-4.2918,-4.2936,-4.2925,-4.2949,-4.2982,-4.3001,-4.3038,-4.3069,-4.3094,-4.31,-4.3081,-4.3078,-4.309,-4.3095,-4.3097,-4.3097,-4.2947,-4.3075,-4.3074,-4.3073,-4.3072,-4.3072,-4.2889,-4.292,-4.2935,-4.2967,-4.298,-4.2998,-4.3027,-4.3029,-4.3057,-4.3087,-4.3077,-4.3116,-4.313,-4.3161,-4.3171,-4.32,-4.3182,-4.3198,-4.3203,-4.3207,-4.3213,-4.3092,-4.3205,-4.3204,-4.3204,-4.3204,-4.3203,0,-4.3005,-4.3014,-4.3043,-4.3071,-4.3096,-4.3075,-4.3094,-4.3116,-4.3151,-4.3166,-4.319,-4.3229,-4.3259,-4.3262,-4.3289,-4.3312,-4.3304,-4.332,-4.3318,-4.332,-4.3228,-4.3215,-4.3326,-4.3326,-4.3326,-4.3326,-4.3326,-4.3326,-4.3069,-4.312,-4.3118,-4.3175,-4.3183,-4.3221,-4.3234,-4.325,-4.3262,-4.3306,-4.3331,-4.3333,-4.3343,-4.3371,-4.3398,-4.3397,-4.3409,-4.3429,-4.3426,-4.3339,-4.3327,-4.3315,-4.3303,-4.3431,-4.3432,-4.3516,-4.3517,-4.3517]}]]